{"data":{"norad_id":69530,"intl_designator":"2026-133Y","name":"STARLINK-37670","alt_names":[],"object_type":"PAYLOAD","status":"ACTIVE","operator":null,"country":"US","launch_date":"2026-06-12","launch_site_code":"AFETR","launch_vehicle":null,"mission":null,"orbit_class":"UNKNOWN","rcs_meters":null,"size_class":null,"mass_kg":null,"dimensions":null,"purposes":["comms"],"wikipedia_slug":null,"has_3d_model":false,"image_url":null,"decayed_at":null,"tle_current":{"epoch":"2026-09-20T05:00:04.242816Z","epoch_age_seconds":50699,"freshness":"FRESH","line1":"1 69530U 26133Y   26263.20838244  .00014982  00000+0  45371-3 0  9994","line2":"2 69530  53.1557 230.7607 0001359  93.2901 266.8257 15.34396007 16728","mean_motion":15.34396007,"eccentricity":0.0001359,"inclination_deg":53.1557,"raan_deg":230.7607,"arg_perigee_deg":93.2901,"mean_anomaly_deg":266.8257,"bstar":0.00045371,"rev_number":1672,"period_min":93.84800230388,"perigee_km":461.78543646881,"apogee_km":463.64478007184,"semimajor_km":6840.8521082703,"source":"CELESTRAK","updated_at":"2026-09-20T09:00:44.239878Z"}}}